Voltar ao catálogo

ONEWEB-0343

AtivoComunicaçõesPO
NORAD 49209·PAYLOAD·🇬🇧 United Kingdom

Lançado Sep 14, 2021 de Baikonur Cosmodrome

Loading…

Próximas Passagens (próximas 24 horas)

TLE

AtualizadoSource: CelesTrak SupGP

Época: Sep 14, 2026, 15:08 UTC

1 49209C 21083Z   26257.63072176  .00001987  00000+0  50448-2 0  2576
2 49209  87.9168 317.6858 0001778  87.2913  24.9326 13.18688389    18

Acompanhe ONEWEB-0343 em tempo real com AllMySat

Download on the App Store